P/2014 C1 ( TOTAS )

Japanese version
Home page
Updated on September 27, 2014

---------------------------------------------------------------------

* Profile

Discovery Date February 1, 2014
Magnitude 19.3 mag
Discoverer Teide Observatory Tenerife Asteroid Survey (TOTAS)

* Pictures

* Orbital Elements

Epoch 2013 Dec. 14.0 TT = JDT 2456640.5
T 2013 Dec. 19.38838 TT                                 MPC
q   1.6883391            (2000.0)            P               Q
n   0.18326603     Peri.   24.19892     -0.97749261     +0.21074358
a   3.0695973      Node   167.95480     -0.20038844     -0.91299785
e   0.4499803      Incl.    2.68182     -0.06597476     -0.34931657
P   5.38
From 46 observations 2014 Feb. 1-May 8, mean residual 0".6.

* Magnitudes Graph

        m1 = 14.0 + 5 log d + 10.0 log r

---------------------------------------------------------------------

The orbital elements are published on M.P.E.C. 2014-L52.
The magnitudes graphs are made with Comet for Windows.

---------------------------------------------------------------------

Copyright(C) Seiichi Yoshida (comet@aerith.net). All rights reserved.